Date String (YYYY-MM-DD hh:mm:ss) UTC,Instrument flags,Ambient pressure (hPa),Sample flow (lpm),Bypass flow (lpm),Sample temperature (°C),Ambient temperature (°C),ASC tube jacket temperature (°C),LED temperature (°C),Box temperature (°C),Sample RH (%),Span deviation,Mass concentration (μg/m³),Mass concentration (μg/m³),Mass concentration (μg/m³)
DateTimeUTC,F1_M11,P_M11,Q1_M11,Q2_M11,T1_M11,T2_M11,T3_M11,T4_M11,T5_M11,U1_M11,ZSPAN_M11,X0_M11,X2_M11,X1_M11
2022-10-28 13:00:00,,0832.1,5.00,0.00,22.1,20.5,00.0,31.0,23.8,11.6,0000.0,0001.81,0001.50,0001.41
2022-10-28 13:01:00,,0832.1,5.00,0.00,22.1,20.5,00.0,31.0,23.8,11.7,0000.0,0001.80,0001.48,0001.39
2022-10-28 13:02:00,,0832.1,5.00,0.00,22.1,20.5,00.0,31.0,23.8,11.7,0000.0,0001.79,0001.47,0001.39
2022-10-28 13:03:00,,0832.1,5.00,0.00,22.1,20.5,00.0,31.0,23.8,11.8,0000.0,0001.88,0001.50,0001.40
2022-10-28 13:04:00,,0832.1,5.01,0.00,22.1,20.7,00.0,31.0,23.9,11.9,0000.0,0001.94,0001.53,0001.41
2022-10-28 13:05:00,,0832.1,4.98,0.00,22.2,21.4,00.0,31.0,24.2,11.8,0000.0,0001.85,0001.51,0001.41
2022-10-28 13:06:00,,0832.1,5.02,0.00,22.3,22.1,00.0,31.0,24.3,11.9,0000.0,0001.87,0001.54,0001.42
2022-10-28 13:07:00,,0832.1,4.98,0.00,22.3,21.9,00.0,31.1,24.4,11.8,0000.0,0001.94,0001.57,0001.44
2022-10-28 13:08:00,,0832.1,5.01,0.00,22.4,21.7,00.0,31.1,24.4,11.8,0000.0,0001.95,0001.58,0001.44
2022-10-28 13:09:00,,0832.1,4.99,0.00,22.4,21.5,00.0,31.1,24.3,11.9,0000.0,0002.03,0001.63,0001.47
2022-10-28 13:10:00,,0832.1,5.01,0.00,22.4,21.3,00.0,31.1,24.3,11.7,0000.0,0002.12,0001.68,0001.49
2022-10-28 13:11:00,,0832.1,5.00,0.00,22.4,21.2,00.0,31.1,24.3,11.9,0000.0,0002.15,0001.70,0001.51
2022-10-28 13:12:00,,0832.1,4.98,0.00,22.4,21.2,00.0,31.1,24.2,11.8,0000.0,0002.18,0001.72,0001.53
2022-10-28 13:13:00,,0832.1,5.00,0.00,22.4,21.1,00.0,31.1,24.2,12.0,0000.0,0002.32,0001.79,0001.55
2022-10-28 13:14:00,,0832.1,5.00,0.00,22.4,21.1,00.0,31.1,24.2,12.0,0000.0,0002.37,0001.80,0001.56
2022-10-28 13:15:00,,0832.1,5.00,0.00,22.3,21.0,00.0,31.1,24.2,11.9,0000.0,0002.43,0001.80,0001.57
2022-10-28 13:16:00,,0832.1,5.00,0.00,22.3,21.0,00.0,31.1,24.2,11.7,0000.0,0002.45,0001.82,0001.58
2022-10-28 13:17:00,,0832.1,5.00,0.00,22.3,20.9,00.0,31.1,24.1,11.7,0000.0,0002.44,0001.82,0001.57
2022-10-28 13:18:00,,0832.1,5.00,0.00,22.3,20.9,00.0,31.1,24.1,11.7,0000.0,0002.44,0001.80,0001.56
2022-10-28 13:19:00,,0832.1,5.00,0.00,22.3,20.8,00.0,31.1,24.1,11.6,0000.0,0002.53,0001.82,0001.56
2022-10-28 13:20:00,,0832.1,5.02,0.00,22.3,20.8,00.0,31.1,24.1,11.6,0000.0,0002.49,0001.79,0001.55
2022-10-28 13:21:00,,0832.1,5.00,0.00,22.3,20.8,00.0,31.1,24.1,11.5,0000.0,0002.46,0001.78,0001.55
2022-10-28 13:22:00,,0832.2,5.00,0.00,22.3,20.7,00.0,31.1,24.0,11.6,0000.0,0002.43,0001.76,0001.53
2022-10-28 13:23:00,,0832.1,5.00,0.00,22.2,20.7,00.0,31.1,23.9,11.7,0000.0,0002.40,0001.74,0001.53
2022-10-28 13:24:00,,0832.1,5.00,0.00,22.2,20.7,00.0,31.1,24.0,11.7,0000.0,0002.26,0001.69,0001.52
2022-10-28 13:25:00,,0832.1,5.00,0.00,22.2,20.6,00.0,31.1,23.9,11.7,0000.0,0002.15,0001.66,0001.51
2022-10-28 13:26:00,,0832.2,4.98,0.00,22.2,20.6,00.0,31.1,24.0,11.6,0000.0,0002.06,0001.66,0001.51
2022-10-28 13:27:00,,0832.1,5.02,0.00,22.2,20.6,00.0,31.1,24.0,11.7,0000.0,0002.09,0001.67,0001.52
2022-10-28 13:28:00,,0832.1,4.98,0.00,22.2,20.6,00.0,31.1,23.9,11.7,0000.0,0002.10,0001.67,0001.53
2022-10-28 13:29:00,,0832.2,5.00,0.00,22.2,20.6,00.0,31.0,23.9,11.7,0000.0,0002.09,0001.68,0001.54
2022-10-28 13:30:00,,0832.2,5.00,0.00,22.2,20.7,00.0,31.0,24.0,11.8,0000.0,0002.01,0001.67,0001.56
2022-10-28 13:31:00,,0832.3,5.01,0.00,22.2,21.5,00.0,31.0,24.2,11.5,0000.0,0002.03,0001.69,0001.57
2022-10-28 13:32:00,,0832.3,4.99,0.00,22.3,22.2,00.0,31.1,24.4,11.6,0000.0,0002.03,0001.69,0001.57
2022-10-28 13:33:00,,0832.3,4.99,0.00,22.4,22.1,00.0,31.1,24.4,11.6,0000.0,0002.20,0001.71,0001.59
2022-10-28 13:34:00,,0832.3,5.02,0.00,22.4,21.8,00.0,31.1,24.4,11.5,0000.0,0002.24,0001.73,0001.59
2022-10-28 13:35:00,,0832.2,4.99,0.00,22.4,21.6,00.0,31.1,24.4,11.4,0000.0,0002.29,0001.75,0001.60
2022-10-28 13:36:00,,0832.3,5.01,0.00,22.4,21.5,00.0,31.1,24.3,11.3,0000.0,0002.31,0001.76,0001.61
2022-10-28 13:37:00,,0832.3,5.00,0.00,22.4,21.3,00.0,31.1,24.3,11.4,0000.0,0002.27,0001.74,0001.61
2022-10-28 13:38:00,,0832.2,5.01,0.00,22.4,21.2,00.0,31.1,24.3,11.4,0000.0,0002.28,0001.75,0001.61
2022-10-28 13:39:00,,0832.3,4.98,0.00,22.4,21.1,00.0,31.2,24.3,11.4,0000.0,0002.27,0001.75,0001.61
2022-10-28 13:40:00,,0832.3,5.02,0.00,22.4,21.1,00.0,31.2,24.3,11.4,0000.0,0002.46,0001.75,0001.60
2022-10-28 13:41:00,,0832.3,5.00,0.00,22.4,21.0,00.0,31.2,24.2,11.4,0000.0,0003.36,0001.78,0001.60
2022-10-28 13:42:00,,0832.4,4.98,0.00,22.4,21.0,00.0,31.1,24.2,11.4,0000.0,0003.35,0001.77,0001.60
2022-10-28 13:43:00,,0832.4,5.00,0.00,22.3,20.9,00.0,31.1,24.1,11.5,0000.0,0003.42,0001.79,0001.60
2022-10-28 13:44:00,,0832.3,5.02,0.00,22.3,20.9,00.0,31.1,24.1,11.5,0000.0,0003.31,0001.78,0001.59
2022-10-28 13:45:00,,0832.3,4.98,0.00,22.3,20.9,00.0,31.1,24.1,11.6,0000.0,0003.28,0001.79,0001.60
2022-10-28 13:46:00,,0832.4,5.02,0.00,22.3,20.9,00.0,31.1,24.2,11.7,0000.0,0003.28,0001.79,0001.61
2022-10-28 13:47:00,,0832.4,4.99,0.00,22.3,20.9,00.0,31.1,24.2,12.0,0000.0,0003.43,0001.86,0001.66
2022-10-28 13:48:00,,0832.5,4.99,0.00,22.3,20.9,00.0,31.1,24.2,12.3,0000.0,0003.59,0001.96,0001.75
2022-10-28 13:49:00,,0832.5,5.01,0.00,22.3,20.9,00.0,31.1,24.2,12.5,0000.0,0003.70,0002.05,0001.85
2022-10-28 13:50:00,,0832.5,5.01,0.00,22.3,20.9,00.0,31.1,24.2,12.4,0000.0,0003.85,0002.17,0001.97
2022-10-28 13:51:00,,0832.5,5.00,0.00,22.3,20.9,00.0,31.1,24.2,12.2,0000.0,0003.83,0002.34,0002.12
2022-10-28 13:52:00,,0832.5,4.98,0.00,22.3,20.9,00.0,31.1,24.2,12.0,0000.0,0003.06,0002.41,0002.23
2022-10-28 13:53:00,,0832.5,5.00,0.00,22.3,20.9,00.0,31.1,24.1,11.9,0000.0,0003.15,0002.48,0002.31
2022-10-28 13:54:00,,0832.5,5.00,0.00,22.3,20.9,00.0,31.1,24.1,11.9,0000.0,0003.17,0002.53,0002.38
2022-10-28 13:55:00,,0832.5,5.00,0.00,22.3,20.9,00.0,31.1,24.1,12.4,0000.0,0003.42,0002.69,0002.54
2022-10-28 13:56:00,,0832.6,5.01,0.00,22.3,20.9,00.0,31.1,24.1,12.2,0000.0,0003.69,0002.87,0002.69
2022-10-28 13:57:00,,0832.5,5.01,0.00,22.3,20.8,00.0,31.1,24.1,12.0,0000.0,0004.72,0002.93,0002.75
2022-10-28 13:58:00,,0832.5,5.00,0.00,22.3,20.8,00.0,31.1,24.1,12.0,0000.0,0005.32,0002.98,0002.77
2022-10-28 13:59:00,,0832.6,5.01,0.00,22.3,20.8,00.0,31.1,24.1,12.2,0000.0,0005.52,0002.98,0002.76
